﻿測定場所 (Monitoring sites),日付 (Measurement date),時間 (Measurement time),線量率 最大値 (max) μGy/h,線量率 最小値 (min) μGy/h,線量率 平均値 (average) μGy/h,
江東 (Koto),2013-01-27,23:01～24:00,0.0456,0.0392,0.0425,
江東 (Koto),2013-01-27,22:01～23:00,0.0441,0.0397,0.0422,
江東 (Koto),2013-01-27,21:01～22:00,0.0450,0.0399,0.0422,
江東 (Koto),2013-01-27,20:01～21:00,0.0460,0.0397,0.0422,
江東 (Koto),2013-01-27,19:01～20:00,0.0444,0.0400,0.0420,
江東 (Koto),2013-01-27,18:01～19:00,0.0455,0.0396,0.0423,
江東 (Koto),2013-01-27,17:01～18:00,0.0448,0.0399,0.0422,
江東 (Koto),2013-01-27,16:01～17:00,0.0456,0.0400,0.0424,
江東 (Koto),2013-01-27,15:01～16:00,0.0456,0.0395,0.0423,
江東 (Koto),2013-01-27,14:01～15:00,0.0453,0.0391,0.0422,
江東 (Koto),2013-01-27,13:01～14:00,0.0460,0.0397,0.0424,
江東 (Koto),2013-01-27,12:01～13:00,0.0453,0.0399,0.0424,
江東 (Koto),2013-01-27,11:01～12:00,0.0449,0.0396,0.0422,
江東 (Koto),2013-01-27,10:01～11:00,0.0448,0.0394,0.0424,
江東 (Koto),2013-01-27,09:01～10:00,0.0449,0.0395,0.0423,
江東 (Koto),2013-01-27,08:01～09:00,0.0458,0.0404,0.0425,
江東 (Koto),2013-01-27,07:01～08:00,0.0451,0.0402,0.0425,
江東 (Koto),2013-01-27,06:01～07:00,0.0459,0.0394,0.0423,
江東 (Koto),2013-01-27,05:01～06:00,0.0455,0.0397,0.0424,
江東 (Koto),2013-01-27,04:01～05:00,0.0450,0.0400,0.0424,
江東 (Koto),2013-01-27,03:01～04:00,0.0460,0.0405,0.0426,
江東 (Koto),2013-01-27,02:01～03:00,0.0448,0.0397,0.0423,
江東 (Koto),2013-01-27,01:01～02:00,0.0448,0.0391,0.0425,
江東 (Koto),2013-01-27,00:01～01:00,0.0454,0.0392,0.0422,
江東 (Koto),2013-01-26,23:01～24:00,0.0453,0.0403,0.0424,
江東 (Koto),2013-01-26,22:01～23:00,0.0462,0.0399,0.0426,
江東 (Koto),2013-01-26,21:01～22:00,0.0453,0.0396,0.0422,
江東 (Koto),2013-01-26,20:01～21:00,0.0447,0.0402,0.0423,
江東 (Koto),2013-01-26,19:01～20:00,0.0446,0.0394,0.0424,
江東 (Koto),2013-01-26,18:01～19:00,0.0444,0.0394,0.0419,
江東 (Koto),2013-01-26,17:01～18:00,0.0459,0.0402,0.0425,
江東 (Koto),2013-01-26,16:01～17:00,0.0450,0.0398,0.0424,
江東 (Koto),2013-01-26,15:01～16:00,0.0446,0.0397,0.0421,
江東 (Koto),2013-01-26,14:01～15:00,0.0448,0.0402,0.0424,
江東 (Koto),2013-01-26,13:01～14:00,0.0453,0.0389,0.0421,
江東 (Koto),2013-01-26,12:01～13:00,0.0444,0.0389,0.0420,
江東 (Koto),2013-01-26,11:01～12:00,0.0449,0.0398,0.0421,
江東 (Koto),2013-01-26,10:01～11:00,0.0463,0.0386,0.0419,
江東 (Koto),2013-01-26,09:01～10:00,0.0449,0.0395,0.0423,
江東 (Koto),2013-01-26,08:01～09:00,0.0446,0.0396,0.0421,
江東 (Koto),2013-01-26,07:01～08:00,0.0445,0.0394,0.0421,
江東 (Koto),2013-01-26,06:01～07:00,0.0450,0.0392,0.0421,
江東 (Koto),2013-01-26,05:01～06:00,0.0449,0.0383,0.0420,
江東 (Koto),2013-01-26,04:01～05:00,0.0463,0.0387,0.0423,
江東 (Koto),2013-01-26,03:01～04:00,0.0451,0.0400,0.0424,
江東 (Koto),2013-01-26,02:01～03:00,0.0444,0.0394,0.0419,
江東 (Koto),2013-01-26,01:01～02:00,0.0456,0.0387,0.0421,
江東 (Koto),2013-01-26,00:01～01:00,0.0447,0.0395,0.0419,
江東 (Koto),2013-01-25,23:01～24:00,0.0449,0.0404,0.0421,
江東 (Koto),2013-01-25,22:01～23:00,0.0444,0.0390,0.0416,
江東 (Koto),2013-01-25,21:01～22:00,0.0446,0.0389,0.0419,
江東 (Koto),2013-01-25,20:01～21:00,0.0445,0.0396,0.0421,
江東 (Koto),2013-01-25,19:01～20:00,0.0452,0.0388,0.0419,
江東 (Koto),2013-01-25,18:01～19:00,0.0442,0.0395,0.0420,
江東 (Koto),2013-01-25,17:01～18:00,0.0448,0.0394,0.0422,
江東 (Koto),2013-01-25,16:01～17:00,0.0458,0.0403,0.0422,
江東 (Koto),2013-01-25,15:01～16:00,0.0448,0.0398,0.0423,
江東 (Koto),2013-01-25,14:01～15:00,0.0440,0.0396,0.0420,
江東 (Koto),2013-01-25,13:01～14:00,0.0463,0.0400,0.0425,
江東 (Koto),2013-01-25,12:01～13:00,0.0447,0.0397,0.0425,
江東 (Koto),2013-01-25,11:01～12:00,0.0449,0.0395,0.0423,
江東 (Koto),2013-01-25,10:01～11:00,0.0455,0.0387,0.0423,
江東 (Koto),2013-01-25,09:01～10:00,0.0451,0.0396,0.0421,
江東 (Koto),2013-01-25,08:01～09:00,0.0447,0.0399,0.0422,
江東 (Koto),2013-01-25,07:01～08:00,0.0452,0.0396,0.0421,
江東 (Koto),2013-01-25,06:01～07:00,0.0455,0.0398,0.0422,
江東 (Koto),2013-01-25,05:01～06:00,0.0440,0.0393,0.0421,
江東 (Koto),2013-01-25,04:01～05:00,0.0444,0.0396,0.0418,
江東 (Koto),2013-01-25,03:01～04:00,0.0454,0.0402,0.0424,
江東 (Koto),2013-01-25,02:01～03:00,0.0451,0.0391,0.0424,
江東 (Koto),2013-01-25,01:01～02:00,0.0456,0.0398,0.0421,
江東 (Koto),2013-01-25,00:01～01:00,0.0442,0.0390,0.0420,
江東 (Koto),2013-01-24,23:01～24:00,0.0452,0.0393,0.0420,
江東 (Koto),2013-01-24,22:01～23:00,0.0453,0.0402,0.0425,
江東 (Koto),2013-01-24,21:01～22:00,0.0468,0.0396,0.0421,
江東 (Koto),2013-01-24,20:01～21:00,0.0448,0.0395,0.0420,
江東 (Koto),2013-01-24,19:01～20:00,0.0447,0.0399,0.0420,
江東 (Koto),2013-01-24,18:01～19:00,0.0448,0.0394,0.0420,
江東 (Koto),2013-01-24,17:01～18:00,0.0440,0.0395,0.0420,
江東 (Koto),2013-01-24,16:01～17:00,0.0445,0.0390,0.0419,
江東 (Koto),2013-01-24,15:01～16:00,0.0442,0.0397,0.0417,
江東 (Koto),2013-01-24,14:01～15:00,0.0442,0.0397,0.0417,
江東 (Koto),2013-01-24,13:01～14:00,0.0443,0.0390,0.0417,
江東 (Koto),2013-01-24,12:01～13:00,0.0434,0.0398,0.0417,
江東 (Koto),2013-01-24,11:01～12:00,0.0461,0.0393,0.0417,
江東 (Koto),2013-01-24,10:01～11:00,0.0439,0.0391,0.0418,
江東 (Koto),2013-01-24,09:01～10:00,0.0447,0.0394,0.0416,
江東 (Koto),2013-01-24,08:01～09:00,0.0442,0.0389,0.0416,
江東 (Koto),2013-01-24,07:01～08:00,0.0444,0.0394,0.0416,
江東 (Koto),2013-01-24,06:01～07:00,0.0446,0.0393,0.0419,
江東 (Koto),2013-01-24,05:01～06:00,0.0446,0.0391,0.0416,
江東 (Koto),2013-01-24,04:01～05:00,0.0450,0.0406,0.0424,
江東 (Koto),2013-01-24,03:01～04:00,0.0458,0.0406,0.0433,
江東 (Koto),2013-01-24,02:01～03:00,0.0470,0.0417,0.0443,
江東 (Koto),2013-01-24,01:01～02:00,0.0475,0.0420,0.0441,
江東 (Koto),2013-01-24,00:01～01:00,0.0472,0.0419,0.0442,
江東 (Koto),2013-01-23,23:01～24:00,0.0473,0.0419,0.0444,
江東 (Koto),2013-01-23,22:01～23:00,0.0466,0.0423,0.0445,
江東 (Koto),2013-01-23,21:01～22:00,0.0460,0.0398,0.0426,
江東 (Koto),2013-01-23,20:01～21:00,0.0449,0.0391,0.0420,
江東 (Koto),2013-01-23,19:01～20:00,0.0441,0.0380,0.0417,
江東 (Koto),2013-01-23,18:01～19:00,0.0450,0.0393,0.0420,
江東 (Koto),2013-01-23,17:01～18:00,0.0449,0.0396,0.0418,
江東 (Koto),2013-01-23,16:01～17:00,0.0437,0.0397,0.0417,
江東 (Koto),2013-01-23,15:01～16:00,0.0447,0.0389,0.0416,
江東 (Koto),2013-01-23,14:01～15:00,0.0449,0.0392,0.0417,
江東 (Koto),2013-01-23,13:01～14:00,0.0446,0.0379,0.0413,
江東 (Koto),2013-01-23,12:01～13:00,0.0462,0.0392,0.0419,
江東 (Koto),2013-01-23,11:01～12:00,0.0448,0.0399,0.0420,
江東 (Koto),2013-01-23,10:01～11:00,0.0444,0.0399,0.0418,
江東 (Koto),2013-01-23,09:01～10:00,0.0451,0.0395,0.0417,
江東 (Koto),2013-01-23,08:01～09:00,0.0436,0.0390,0.0417,
江東 (Koto),2013-01-23,07:01～08:00,0.0451,0.0396,0.0420,
江東 (Koto),2013-01-23,06:01～07:00,0.0442,0.0389,0.0418,
江東 (Koto),2013-01-23,05:01～06:00,0.0444,0.0400,0.0419,
江東 (Koto),2013-01-23,04:01～05:00,0.0443,0.0390,0.0416,
江東 (Koto),2013-01-23,03:01～04:00,0.0445,0.0388,0.0418,
江東 (Koto),2013-01-23,02:01～03:00,0.0443,0.0388,0.0420,
江東 (Koto),2013-01-23,01:01～02:00,0.0450,0.0393,0.0418,
江東 (Koto),2013-01-23,00:01～01:00,0.0454,0.0390,0.0418,
江東 (Koto),2013-01-22,23:01～24:00,0.0443,0.0397,0.0418,
江東 (Koto),2013-01-22,22:01～23:00,0.0448,0.0380,0.0421,
江東 (Koto),2013-01-22,21:01～22:00,0.0449,0.0393,0.0418,
江東 (Koto),2013-01-22,20:01～21:00,0.0446,0.0393,0.0422,
江東 (Koto),2013-01-22,19:01～20:00,0.0439,0.0397,0.0421,
江東 (Koto),2013-01-22,18:01～19:00,0.0446,0.0402,0.0421,
江東 (Koto),2013-01-22,17:01～18:00,0.0447,0.0394,0.0418,
江東 (Koto),2013-01-22,16:01～17:00,0.0448,0.0394,0.0420,
江東 (Koto),2013-01-22,15:01～16:00,0.0451,0.0403,0.0424,
江東 (Koto),2013-01-22,14:01～15:00,0.0446,0.0391,0.0420,
江東 (Koto),2013-01-22,13:01～14:00,0.0452,0.0407,0.0429,
江東 (Koto),2013-01-22,12:01～13:00,0.0477,0.0415,0.0443,
江東 (Koto),2013-01-22,11:01～12:00,0.0494,0.0436,0.0462,
江東 (Koto),2013-01-22,10:01～11:00,0.0483,0.0421,0.0448,
江東 (Koto),2013-01-22,09:01～10:00,0.0483,0.0418,0.0441,
江東 (Koto),2013-01-22,08:01～09:00,0.0470,0.0416,0.0446,
江東 (Koto),2013-01-22,07:01～08:00,0.0466,0.0401,0.0430,
江東 (Koto),2013-01-22,06:01～07:00,0.0455,0.0400,0.0422,
江東 (Koto),2013-01-22,05:01～06:00,0.0454,0.0405,0.0424,
江東 (Koto),2013-01-22,04:01～05:00,0.0453,0.0398,0.0424,
江東 (Koto),2013-01-22,03:01～04:00,0.0447,0.0392,0.0423,
江東 (Koto),2013-01-22,02:01～03:00,0.0456,0.0394,0.0428,
江東 (Koto),2013-01-22,01:01～02:00,0.0470,0.0410,0.0442,
江東 (Koto),2013-01-22,00:01～01:00,0.0485,0.0430,0.0453,
江東 (Koto),2013-01-21,23:01～24:00,0.0466,0.0402,0.0435,
江東 (Koto),2013-01-21,22:01～23:00,0.0445,0.0399,0.0420,
江東 (Koto),2013-01-21,21:01～22:00,0.0445,0.0403,0.0419,
江東 (Koto),2013-01-21,20:01～21:00,0.0439,0.0382,0.0418,
江東 (Koto),2013-01-21,19:01～20:00,0.0443,0.0379,0.0416,
江東 (Koto),2013-01-21,18:01～19:00,0.0445,0.0392,0.0421,
江東 (Koto),2013-01-21,17:01～18:00,0.0443,0.0385,0.0418,
江東 (Koto),2013-01-21,16:01～17:00,0.0446,0.0397,0.0420,
江東 (Koto),2013-01-21,15:01～16:00,0.0442,0.0389,0.0419,
江東 (Koto),2013-01-21,14:01～15:00,0.0444,0.0383,0.0420,
江東 (Koto),2013-01-21,13:01～14:00,0.0446,0.0394,0.0421,
江東 (Koto),2013-01-21,12:01～13:00,0.0446,0.0394,0.0420,
江東 (Koto),2013-01-21,11:01～12:00,0.0442,0.0392,0.0419,
江東 (Koto),2013-01-21,10:01～11:00,0.0446,0.0395,0.0416,
江東 (Koto),2013-01-21,09:01～10:00,0.0442,0.0393,0.0420,
江東 (Koto),2013-01-21,08:01～09:00,0.0446,0.0397,0.0418,
江東 (Koto),2013-01-21,07:01～08:00,0.0446,0.0400,0.0419,
江東 (Koto),2013-01-21,06:01～07:00,0.0446,0.0388,0.0421,
江東 (Koto),2013-01-21,05:01～06:00,0.0441,0.0393,0.0421,
江東 (Koto),2013-01-21,04:01～05:00,0.0446,0.0397,0.0420,
江東 (Koto),2013-01-21,03:01～04:00,0.0448,0.0395,0.0420,
江東 (Koto),2013-01-21,02:01～03:00,0.0455,0.0398,0.0422,
江東 (Koto),2013-01-21,01:01～02:00,0.0456,0.0395,0.0420,
江東 (Koto),2013-01-21,00:01～01:00,0.0452,0.0395,0.0423,
